Location: Altenhof
(50.2418°N, 10.8789°E)
Time: 02:11:02
(UTC+00:00)

USA 215 - Pass Details

Date: 18 February 2020
Orbit: 1098 x 1110 km, 123.0° (Epoch: 08 March)

Event Time Altitude Azimuth Distance (km) Brightness Sun altitude
Rises 04:10:50 0° 69° (ENE) 3,920 7.5 -21.8°
Reaches altitude 10° 04:13:22 10° 65° (ENE) 2,963 6.6 -21.4°
Maximum altitude 04:19:40 52° 351° (N) 1,348 3.7 -20.4°
Enters shadow 04:22:54 29° 291° (WNW) 1,919 4.0 -19.8°
